Location: Dover
(48.8500°N, 53.9833°W)
Time: 18:00:48
(UTC+00:00)

Cosmos 841 Rocket - Pass Details

Date: 14 November 2025
Orbit: 742 x 768 km, 74.0° (Epoch: 10 December)

Event Time Altitude Azimuth Distance (km) Brightness Sun altitude
Rises 21:47:47 0° 341° (NNW) 3,246 6.9 -18.2°
Reaches altitude 10° 21:50:22 10° 351° (N) 2,318 6.0 -18.6°
Maximum altitude 21:55:11 35° 56° (ENE) 1,228 4.1 -19.4°
Enters shadow 21:55:16 35° 59° (ENE) 1,229 4.1 -19.4°
